Columbia, MO

2:01 AM CST on December 13, 2017 (GMT -0600)
Columbia Regional

Weather History for KCOU - October, 2013

Change the Weather History Date:

Friday, October 11, 2013

  Actual Average Record
Temperature  
Mean Temperature 68 °F 58 °F  
Max Temperature 80 °F 69 °F 89 °F (1962)
Min Temperature 55 °F 46 °F 29 °F (1906)
Degree Days  
Heating Degree Days 0 8  
Month to date heating degree days 34 77  
Since 1 July heating degree days 50 145  
Cooling Degree Days 3 1  
Month to date cooling degree days 47 13  
Year to date cooling degree days 1321 1240  
Growing Degree Days 18 (Base 50)    
Moisture  
Dew Point 58 °F    
Average Humidity 76    
Maximum Humidity 100    
Minimum Humidity 51    
Precipitation  
Precipitation 0.00 in 0.10 in 2.32 in (1954)
Month to date precipitation 0.52 1.29  
Year to date precipitation 36.03 34.91  
Snow  
Snow 0.00 in 0.00 in T in (1909)
Month to date snowfall 0.0 0.0  
Since 1 July snowfall 0.0 0.0  
Since 1 September snowfall 0.0 0.0  
Snow Depth 0.00 in    
Sea Level Pressure  
Sea Level Pressure 29.92 in    
Wind  
Wind Speed 12 mph (SSE)    
Max Wind Speed 20 mph    
Max Gust Speed 26 mph    
Visibility 9 miles    
Events      
T = Trace of Precipitation, MM = Missing Value Source: NWS Daily Summary

Daily Weather History Graph

Daily Weather History Graph

Search for Another Location

Airport or City:

Trip Planner

Search our weather history database for the weather conditions in past years. The results will help you decide how hot, cold, wet, or windy it might be!

Date:

Astronomy

Oct. 11, 2013 Rise Set
Actual Time 7:14 AM CDT 6:35 PM CDT
Civil Twilight 6:47 AM CDT 7:02 PM CDT
Nautical Twilight 6:16 AM CDT 7:33 PM CDT
Astronomical Twilight 5:46 AM CDT 8:04 PM CDT
Moon 1:55 PM CDT (10/11) No Moon Set
Length of Visible Light 12h 14m
Length of Day
11h 21m
Waxing Crescent, 47% of the Moon is Illuminated
Oct 11
Waxing Crescent
Oct 11
First Quarter
Oct 18
Full
Oct 26
Last Quarter
Nov 3
New

Hourly Weather History & Observations

Time (CDT) Temp. Heat Index Dew Point Humidity Pressure Visibility Wind Dir Wind Speed Gust Speed Precip Events Conditions
12:54 AM 59.0 °F - 55.0 °F 87% 29.96 in 10.0 mi SSE 9.2 mph - N/A   Clear
1:54 AM 57.0 °F - 55.0 °F 93% 29.96 in 10.0 mi SSE 8.1 mph - N/A   Clear
2:54 AM 57.0 °F - 54.0 °F 89% 29.98 in 10.0 mi SSE 8.1 mph - N/A   Clear
3:54 AM 55.9 °F - 54.0 °F 93% 29.97 in 9.0 mi SSE 8.1 mph - N/A   Clear
4:54 AM 55.9 °F - 54.0 °F 93% 29.96 in 8.0 mi SE 8.1 mph - N/A   Clear
5:54 AM 55.9 °F - 54.0 °F 93% 29.97 in 6.0 mi SE 8.1 mph - N/A   Clear
6:54 AM 55.0 °F - 54.0 °F 96% 29.99 in 5.0 mi SE 8.1 mph - N/A   Clear
7:54 AM 55.9 °F - 55.0 °F 97% 29.98 in 5.0 mi SE 9.2 mph - N/A   Clear
8:54 AM 60.1 °F - 57.0 °F 90% 29.98 in 9.0 mi SSE 11.5 mph - N/A   Partly Cloudy
9:54 AM 64.9 °F - 59.0 °F 81% 29.97 in 10.0 mi SSE 12.7 mph - N/A   Clear
10:54 AM 70.0 °F - 59.0 °F 68% 29.95 in 10.0 mi SSE 15.0 mph - N/A   Clear
11:54 AM 73.9 °F - 60.1 °F 62% 29.93 in 10.0 mi SSE 16.1 mph 21.9 mph N/A   Clear
12:54 PM 75.9 °F - 60.1 °F 58% 29.90 in 10.0 mi SSE 16.1 mph - N/A   Clear
1:54 PM 77.0 °F - 60.1 °F 56% 29.88 in 10.0 mi SE 15.0 mph - N/A   Partly Cloudy
2:54 PM 80.1 °F 81.1 °F 61.0 °F 52% 29.86 in 10.0 mi South 17.3 mph - N/A   Mostly Cloudy
3:54 PM 77.0 °F - 60.1 °F 56% 29.86 in 10.0 mi South 17.3 mph - N/A   Mostly Cloudy
4:54 PM 78.1 °F - 61.0 °F 56% 29.85 in 10.0 mi SSE 17.3 mph 24.2 mph N/A   Partly Cloudy
5:54 PM 75.0 °F - 61.0 °F 62% 29.87 in 10.0 mi SSE 10.4 mph - N/A   Overcast
6:54 PM 73.9 °F - 60.1 °F 62% 29.87 in 10.0 mi SSE 10.4 mph - N/A   Overcast
7:54 PM 71.1 °F - 59.0 °F 66% 29.89 in 10.0 mi SSE 11.5 mph - N/A   Partly Cloudy
8:54 PM 71.1 °F - 59.0 °F 66% 29.89 in 10.0 mi SSE 11.5 mph - N/A   Overcast
9:54 PM 70.0 °F - 59.0 °F 68% 29.89 in 10.0 mi SSE 10.4 mph - N/A   Overcast
10:54 PM 68.0 °F - 59.0 °F 73% 29.90 in 10.0 mi SSE 9.2 mph - N/A   Overcast
11:54 PM 66.0 °F - 57.9 °F 75% 29.89 in 10.0 mi SSE 10.4 mph - N/A   Partly Cloudy